Marshalltown, IA

3:53 AM CDT on April 26, 2017 (GMT -0500)
Marshalltown Municipal

Weather History for KMIW - May, 2014

Change the Weather History Date:

Saturday, May 24, 2014

  Actual Average Record
Temperature  
Mean Temperature 64 °F 63 °F  
Max Temperature 77 °F 74 °F 84 °F (2006)
Min Temperature 51 °F 52 °F 39 °F (2001)
Degree Days  
Heating Degree Days 1 4  
Month to date heating degree days 171 176  
Since 1 July heating degree days 7908 6961  
Cooling Degree Days 0 2  
Month to date cooling degree days 20 27  
Year to date cooling degree days 25 31  
Growing Degree Days 14 (Base 50)    
Moisture  
Dew Point 48 °F    
Average Humidity 58    
Maximum Humidity 83    
Minimum Humidity 33    
Precipitation  
Precipitation 0.00 in 0.13 in 1.09 in (2004)
Month to date precipitation 1.97 3.12  
Sea Level Pressure  
Sea Level Pressure 30.12 in    
Wind  
Wind Speed 10 mph (ESE)    
Max Wind Speed 16 mph    
Max Gust Speed 21 mph    
Visibility 10 miles    
Events      
T = Trace of Precipitation, MM = Missing Value Source: NWS Daily Summary

Daily Weather History Graph

Daily Weather History Graph

Search for Another Location

Airport or City:

Trip Planner

Search our weather history database for the weather conditions in past years. The results will help you decide how hot, cold, wet, or windy it might be!

Date:

Astronomy

May. 24, 2014 Rise Set
Actual Time 5:43 AM CDT 8:34 PM CDT
Civil Twilight 5:10 AM CDT 9:07 PM CDT
Nautical Twilight 4:28 AM CDT 9:49 PM CDT
Astronomical Twilight 3:40 AM CDT 10:37 PM CDT
Moon 3:17 AM CDT (5/24) 4:28 PM CDT (5/24)
Length of Visible Light 15h 57m
Length of Day
14h 51m
Waning Crescent, 18% of the Moon is Illuminated
May 24
Waning Crescent
May 28
New
Jun 5
First Quarter
Jun 12
Full
Jun 19
Last Quarter

Hourly Weather History & Observations

Time (CDT) Temp. Dew Point Humidity Pressure Visibility Wind Dir Wind Speed Gust Speed Precip Events Conditions
12:53 AM 55.9 °F 45.0 °F 67% 30.15 in 10.0 mi East 6.9 mph - N/A   Clear
1:53 AM 54.0 °F 45.0 °F 72% 30.14 in 10.0 mi East 6.9 mph - N/A   Clear
2:53 AM 53.1 °F 46.0 °F 77% 30.15 in 10.0 mi East 6.9 mph - N/A   Clear
3:53 AM 52.0 °F 45.0 °F 77% 30.15 in 10.0 mi East 6.9 mph - N/A   Clear
4:53 AM 51.1 °F 45.0 °F 80% 30.16 in 10.0 mi East 6.9 mph - N/A   Clear
5:53 AM 52.0 °F 46.0 °F 80% 30.17 in 10.0 mi East 9.2 mph - N/A   Clear
6:53 AM 53.1 °F 48.0 °F 83% 30.18 in 10.0 mi ESE 8.1 mph - N/A   Clear
7:53 AM 59.0 °F 48.9 °F 69% 30.18 in 10.0 mi ESE 13.8 mph - N/A   Clear
8:53 AM 62.1 °F 48.0 °F 60% 30.18 in 10.0 mi SE 16.1 mph - N/A   Clear
9:53 AM 64.0 °F 48.9 °F 58% 30.17 in 10.0 mi SE 11.5 mph - N/A   Clear
10:53 AM 68.0 °F 51.1 °F 55% 30.16 in 10.0 mi SE 11.5 mph - N/A   Clear
11:53 AM 70.0 °F 51.1 °F 51% 30.16 in 10.0 mi SE 12.7 mph - N/A   Clear
12:53 PM 71.1 °F 52.0 °F 51% 30.14 in 10.0 mi SE 10.4 mph - N/A   Clear
1:53 PM 73.0 °F 51.1 °F 46% 30.12 in 10.0 mi SE 13.8 mph - N/A   Clear
2:53 PM 75.0 °F 50.0 °F 41% 30.11 in 10.0 mi SE 15.0 mph - N/A   Clear
3:53 PM 75.9 °F 48.0 °F 37% 30.09 in 10.0 mi SE 11.5 mph - N/A   Clear
4:53 PM 77.0 °F 46.9 °F 34% 30.07 in 10.0 mi South 9.2 mph - N/A   Clear
6:53 PM 75.0 °F 46.9 °F 37% 30.05 in 10.0 mi SE 11.5 mph - N/A   Clear
7:53 PM 72.0 °F 50.0 °F 46% 30.04 in 10.0 mi ESE 10.4 mph - N/A   Clear
8:53 PM 66.9 °F 50.0 °F 54% 30.05 in 10.0 mi ESE 6.9 mph - N/A   Clear
9:53 PM 63.0 °F 50.0 °F 63% 30.07 in 10.0 mi SSE 4.6 mph - N/A   Clear
10:53 PM 60.1 °F 50.0 °F 69% 30.07 in 10.0 mi ESE 5.8 mph - N/A   Clear
11:53 PM 61.0 °F 48.9 °F 64% 30.08 in 10.0 mi ESE 6.9 mph - N/A   Clear